| time (UTC) | temp C | wind direction | speed KPH | gust KPH | rain 1hr cm | rain 24hr cm | rain mn cm | humidity % | barometer mb |
| 20260902231829 | 35 | 249 | 0.0 | 1.6 | 0.00 | 0.00 | 0.00 | 58 | 1014.4 |
| 20260902231321 | 35 | 249 | 0.0 | 1.6 | 0.00 | 0.00 | 0.00 | 57 | 1014.4 |
| 20260902230815 | 35 | 250 | 0.0 | 1.6 | 0.00 | 0.00 | 0.00 | 59 | 1014.3 |
| 20260902230325 | 35 | 249 | 0.0 | 1.6 | 0.00 | 0.00 | 0.00 | 60 | 1014.4 |
| 20260902225815 | 34 | 249 | 0.0 | 3.2 | 0.00 | 0.00 | 0.00 | 60 | 1014.5 |
| 20260902225347 | 34 | 252 | 1.6 | 6.4 | 0.00 | 0.00 | 0.00 | 59 | 1014.6 |
| 20260902224818 | 34 | 251 | 1.6 | 6.4 | 0.00 | 0.00 | 0.00 | 57 | 1014.5 |
| 20260902224330 | 35 | 238 | 1.6 | 3.2 | 0.00 | 0.00 | 0.00 | 58 | 1014.5 |
| 20260902223821 | 35 | 238 | 1.6 | 4.8 | 0.00 | 0.00 | 0.00 | 56 | 1014.5 |
| 20260902222814 | 35 | 245 | 3.2 | 6.4 | 0.00 | 0.00 | 0.00 | 55 | 1014.5 |
| 20260902222325 | 35 | 255 | 3.2 | 6.4 | 0.00 | 0.00 | 0.00 | 55 | 1014.5 |
| 20260902221817 | 35 | 245 | 3.2 | 6.4 | 0.00 | 0.00 | 0.00 | 55 | 1014.6 |
| 20260902221325 | 35 | 233 | 3.2 | 6.4 | 0.00 | 0.00 | 0.00 | 55 | 1014.7 |
| 20260902220817 | 35 | 232 | 3.2 | 6.4 | 0.00 | 0.00 | 0.00 | 54 | 1014.7 |
| 20260902220328 | 35 | 259 | 3.2 | 6.4 | 0.00 | 0.00 | 0.00 | 54 | 1014.7 |
| 20260902215838 | 35 | 251 | 1.6 | 6.4 | 0.00 | 0.00 | 0.00 | 54 | 1014.7 |
| 20260902215329 | 35 | 232 | 3.2 | 6.4 | 0.00 | 0.00 | 0.00 | 56 | 1014.7 |
| 20260902214820 | 35 | 249 | 3.2 | 6.4 | 0.00 | 0.00 | 0.00 | 53 | 1014.7 |
| 20260902214316 | 35 | 257 | 1.6 | 6.4 | 0.00 | 0.00 | 0.00 | 54 | 1014.7 |
| 20260902213827 | 35 | 257 | 1.6 | 6.4 | 0.00 | 0.00 | 0.00 | 54 | 1014.7 |
| 20260902213337 | 34 | 245 | 4.8 | 11.3 | 0.00 | 0.00 | 0.00 | 56 | 1014.8 |
| 20260902212828 | 34 | 255 | 6.4 | 11.3 | 0.00 | 0.00 | 0.00 | 53 | 1014.8 |
| 20260902212320 | 34 | 264 | 6.4 | 9.7 | 0.00 | 0.00 | 0.00 | 55 | 1014.9 |
| 20260902211820 | 34 | 269 | 4.8 | 11.3 | 0.00 | 0.00 | 0.00 | 54 | 1014.9 |
| 20260902211349 | 34 | 247 | 8.0 | 11.3 | 0.00 | 0.00 | 0.00 | 52 | 1014.9 |
| 20260902210816 | 34 | 246 | 3.2 | 11.3 | 0.00 | 0.00 | 0.00 | 54 | 1014.9 |
| 20260902210330 | 34 | 259 | 8.0 | 12.9 | 0.00 | 0.00 | 0.00 | 54 | 1015.0 |
| 20260902205820 | 35 | 288 | 6.4 | 12.9 | 0.00 | 0.00 | 0.00 | 53 | 1015.0 |
| 20260902205314 | 35 | 263 | 4.8 | 9.7 | 0.00 | 0.00 | 0.00 | 51 | 1015.1 |
| 20260902204827 | 35 | 255 | 4.8 | 9.7 | 0.00 | 0.00 | 0.00 | 52 | 1015.1 |
| 20260902204324 | 35 | 269 | 6.4 | 9.7 | 0.00 | 0.00 | 0.00 | 53 | 1015.1 |
| 20260902203818 | 35 | 228 | 3.2 | 9.7 | 0.00 | 0.00 | 0.00 | 53 | 1015.1 |
| 20260902203331 | 35 | 259 | 4.8 | 9.7 | 0.00 | 0.00 | 0.00 | 55 | 1015.2 |
| 20260902202825 | 34 | 271 | 526.3 | 12.9 | 0.00 | 0.00 | 0.00 | 1015.1 | |
| 20260902202318 | -17 | 0.0 | 0.0 | 0.00 | 0.00 | 0.00 | 1015.2 | ||
| 20260902201851 | -17 | 0.0 | 0.0 | 0.00 | 0.00 | 0.00 | 1015.2 | ||
| 20260902201323 | -17 | 0.0 | 0.0 | 0.00 | 0.00 | 0.00 | 1015.3 | ||
| 20260902200316 | 34 | 250 | 3.2 | 11.3 | 0.00 | 0.00 | 0.00 | 55 | 1015.4 |
| 20260902195825 | 34 | 267 | 8.0 | 12.9 | 0.00 | 0.00 | 0.00 | 52 | 1015.4 |
| 20260902195322 | 35 | 269 | 8.0 | 19.3 | 0.00 | 0.00 | 0.00 | 52 | 1015.5 |
| 20260902194815 | 35 | 250 | 8.0 | 19.3 | 0.00 | 0.00 | 0.00 | 54 | 1015.5 |
| 20260902194327 | 35 | 250 | 6.4 | 11.3 | 0.00 | 0.00 | 0.00 | 54 | 1015.6 |
| 20260902193819 | 35 | 222 | 1.6 | 11.3 | 0.00 | 0.00 | 0.00 | 54 | 1015.6 |
| 20260902193313 | 34 | 262 | 6.4 | 12.9 | 0.00 | 0.00 | 0.00 | 52 | 1015.7 |
| 20260902192827 | 34 | 269 | 6.4 | 12.9 | 0.00 | 0.00 | 0.00 | 54 | 1015.7 |
| 20260902192319 | 35 | 267 | 8.0 | 12.9 | 0.00 | 0.00 | 0.00 | 52 | 1015.9 |
| 20260902191813 | 35 | 257 | 4.8 | 8.0 | 0.00 | 0.00 | 0.00 | 54 | 1015.9 |
| 20260902191331 | 35 | 250 | 4.8 | 8.0 | 0.00 | 0.00 | 0.00 | 53 | 1015.9 |
| 20260902190843 | 35 | 257 | 4.8 | 9.7 | 0.00 | 0.00 | 0.00 | 53 | 1016.0 |
| 20260902190314 | 34 | 244 | 4.8 | 11.3 | 0.00 | 0.00 | 0.00 | 53 | 1016.1 |
| 20260902185824 | 34 | 255 | 6.4 | 16.1 | 0.00 | 0.00 | 0.00 | 54 | 1016.2 |
| 20260902185337 | 34 | 280 | 8.0 | 16.1 | 0.00 | 0.00 | 0.00 | 53 | 1016.2 |
| 20260902184828 | 34 | 255 | 6.4 | 12.9 | 0.00 | 0.00 | 0.00 | 53 | 1016.2 |
| 20260902184321 | 33 | 278 | 9.7 | 14.5 | 0.00 | 0.00 | 0.00 | 53 | 1016.3 |
| 20260902183814 | 33 | 262 | 8.0 | 16.1 | 0.00 | 0.00 | 0.00 | 53 | 1016.3 |
| 20260902183328 | 33 | 195 | 9.7 | 17.7 | 0.00 | 0.00 | 0.00 | 55 | 1016.3 |
| 20260902182825 | 33 | 206 | 8.0 | 17.7 | 0.00 | 0.00 | 0.00 | 57 | 1016.3 |
| 20260902181819 | 33 | 266 | 4.8 | 14.5 | 0.00 | 0.00 | 0.00 | 55 | 1016.4 |
| 20260902180831 | 33 | 278 | 6.4 | 16.1 | 0.00 | 0.00 | 0.00 | 55 | 1016.4 |
| 20260902180324 | 33 | 270 | 9.7 | 16.1 | 0.00 | 0.00 | 0.00 | 56 | 1016.5 |
| 20260902175815 | 33 | 215 | 6.4 | 16.1 | 0.00 | 0.00 | 0.00 | 58 | 1016.5 |
| 20260902175328 | 33 | 202 | 6.4 | 9.7 | 0.00 | 0.00 | 0.00 | 57 | 1016.6 |
| 20260902174822 | 33 | 276 | 6.4 | 16.1 | 0.00 | 0.00 | 0.00 | 57 | 1016.6 |
| 20260902174318 | 33 | 279 | 6.4 | 11.3 | 0.00 | 0.00 | 0.00 | 56 | 1016.6 |
| 20260902173831 | 33 | 260 | 4.8 | 16.1 | 0.00 | 0.00 | 0.00 | 56 | 1016.7 |
| 20260902173324 | 33 | 262 | 8.0 | 16.1 | 0.00 | 0.00 | 0.00 | 57 | 1016.8 |
| 20260902172818 | 33 | 249 | 4.8 | 16.1 | 0.00 | 0.00 | 0.00 | 58 | 1016.8 |
| 20260902172353 | 33 | 255 | 6.4 | 14.5 | 0.00 | 0.00 | 0.00 | 59 | 1016.9 |
| 20260902171825 | 33 | 252 | 8.0 | 14.5 | 0.00 | 0.00 | 0.00 | 58 | 1016.9 |
| 20260902171318 | 33 | 301 | 8.0 | 11.3 | 0.00 | 0.00 | 0.00 | 58 | 1017.0 |
| 20260902170831 | 33 | 260 | 3.2 | 14.5 | 0.00 | 0.00 | 0.00 | 61 | 1017.0 |
| 20260902170325 | 32 | 226 | 8.0 | 14.5 | 0.00 | 0.00 | 0.00 | 61 | 1017.0 |
| 20260902165820 | 32 | 222 | 4.8 | 12.9 | 0.00 | 0.00 | 0.00 | 61 | 1017.0 |
| 20260902165313 | 32 | 269 | 8.0 | 16.1 | 0.00 | 0.00 | 0.00 | 60 | 1017.1 |
| 20260902164845 | 32 | 245 | 8.0 | 16.1 | 0.00 | 0.00 | 0.00 | 61 | 1017.2 |
| 20260902164317 | 32 | 256 | 9.7 | 14.5 | 0.00 | 0.00 | 0.00 | 61 | 1017.2 |
| 20260902163829 | 32 | 273 | 6.4 | 14.5 | 0.00 | 0.00 | 0.00 | 62 | 1017.2 |
| 20260902163322 | 32 | 284 | 1.6 | 14.5 | 0.00 | 0.00 | 0.00 | 61 | 1017.3 |
| 20260902162815 | 32 | 257 | 8.0 | 12.9 | 0.00 | 0.00 | 0.00 | 60 | 1017.4 |
| 20260902162329 | 32 | 256 | 4.8 | 11.3 | 0.00 | 0.00 | 0.00 | 62 | 1017.5 |
| 20260902161828 | 32 | 263 | 3.2 | 14.5 | 0.00 | 0.00 | 0.00 | 62 | 1017.5 |
| 20260902161340 | 32 | 245 | 6.4 | 14.5 | 0.00 | 0.00 | 0.00 | 62 | 1017.6 |
| 20260902160832 | 32 | 277 | 6.4 | 9.7 | 0.00 | 0.00 | 0.00 | 63 | 1017.6 |
| 20260902160325 | 32 | 233 | 6.4 | 9.7 | 0.00 | 0.00 | 0.00 | 63 | 1017.6 |
| 20260902155813 | 32 | 235 | 4.8 | 11.3 | 0.00 | 0.00 | 0.00 | 63 | 1017.6 |
| 20260902155346 | 32 | 293 | 4.8 | 12.9 | 0.00 | 0.00 | 0.00 | 62 | 1017.6 |
| 20260902154818 | 31 | 312 | 8.0 | 14.5 | 0.00 | 0.00 | 0.00 | 63 | 1017.7 |
| 20260902154431 | 31 | 260 | 6.4 | 14.5 | 0.00 | 0.00 | 0.00 | 63 | 1017.7 |
| 20260902153818 | 31 | 249 | 4.8 | 8.0 | 0.00 | 0.00 | 0.00 | 63 | 1017.7 |
| 20260902153330 | 31 | 271 | 4.8 | 12.9 | 0.00 | 0.00 | 0.00 | 64 | 1017.7 |
| 20260902152823 | 31 | 255 | 4.8 | 12.9 | 0.00 | 0.00 | 0.00 | 64 | 1017.7 |
| 20260902152319 | 31 | 253 | 6.4 | 12.9 | 0.00 | 0.00 | 0.00 | 63 | 1017.7 |
| 20260902151852 | 31 | 253 | 4.8 | 12.9 | 0.00 | 0.00 | 0.00 | 64 | 1017.6 |
| 20260902151343 | 31 | 278 | 6.4 | 11.3 | 0.00 | 0.00 | 0.00 | 64 | 1017.6 |
| 20260902150814 | 30 | 285 | 4.8 | 9.7 | 0.00 | 0.00 | 0.00 | 63 | 1017.6 |
| 20260902150328 | 30 | 267 | 3.2 | 9.7 | 0.00 | 0.00 | 0.00 | 64 | 1017.6 |
| 20260902145839 | 30 | 268 | 4.8 | 9.7 | 0.00 | 0.00 | 0.00 | 64 | 1017.6 |
| 20260902145351 | 30 | 264 | 4.8 | 9.7 | 0.00 | 0.00 | 0.00 | 65 | 1017.7 |
| 20260902144822 | 30 | 264 | 4.8 | 8.0 | 0.00 | 0.00 | 0.00 | 65 | 1017.8 |
| 20260902144315 | 30 | 328 | 3.2 | 9.7 | 0.00 | 0.00 | 0.00 | 65 | 1017.8 |
| 20260902143828 | 30 | 316 | 4.8 | 9.7 | 0.00 | 0.00 | 0.00 | 65 | 1017.8 |
| 20260902143322 | 30 | 296 | 6.4 | 9.7 | 0.00 | 0.00 | 0.00 | 65 | 1017.7 |
| 20260902142838 | 30 | 270 | 3.2 | 8.0 | 0.00 | 0.00 | 0.00 | 64 | 1017.7 |
| 20260902142351 | 30 | 233 | 1.6 | 3.2 | 0.00 | 0.00 | 0.00 | 64 | 1017.6 |
| 20260902141823 | 29 | 233 | 0.0 | 3.2 | 0.00 | 0.00 | 0.00 | 64 | 1017.6 |
| 20260902141316 | 29 | 246 | 1.6 | 3.2 | 0.00 | 0.00 | 0.00 | 64 | 1017.5 |
| 20260902140848 | 29 | 224 | 1.6 | 3.2 | 0.00 | 0.00 | 0.00 | 64 | 1017.5 |
| 20260902140320 | 28 | 224 | 0.0 | 3.2 | 0.00 | 0.00 | 0.00 | 63 | 1017.6 |
| 20260902135812 | 28 | 225 | 0.0 | 3.2 | 0.00 | 0.00 | 0.00 | 62 | 1017.6 |
| 20260902135326 | 28 | 252 | 0.0 | 3.2 | 0.00 | 0.00 | 0.00 | 63 | 1017.6 |
| 20260902134838 | 28 | 264 | 0.0 | 3.2 | 0.00 | 0.00 | 0.00 | 61 | 1017.7 |
| 20260902134330 | 27 | 264 | 0.0 | 3.2 | 0.00 | 0.00 | 0.00 | 60 | 1017.7 |
| 20260902133842 | 27 | 264 | 1.6 | 3.2 | 0.00 | 0.00 | 0.00 | 59 | 1017.8 |
| 20260902133337 | 26 | 264 | 1.6 | 4.8 | 0.00 | 0.00 | 0.00 | 59 | 1017.7 |
| 20260902132829 | 26 | 229 | 1.6 | 4.8 | 0.00 | 0.00 | 0.00 | 58 | 1017.7 |
| 20260902132323 | 26 | 233 | 0.0 | 3.2 | 0.00 | 0.00 | 0.00 | 57 | 1017.6 |
| 20260902131816 | 26 | 233 | 1.6 | 3.2 | 0.00 | 0.00 | 0.00 | 56 | 1017.7 |
| 20260902131330 | 25 | 233 | 0.0 | 3.2 | 0.00 | 0.00 | 0.00 | 55 | 1017.6 |
| 20260902130824 | 25 | 233 | 1.6 | 1.6 | 0.00 | 0.00 | 0.00 | 54 | 1017.7 |
| 20260902130317 | 25 | 233 | 0.0 | 1.6 | 0.00 | 0.00 | 0.00 | 53 | 1017.7 |
| 20260902125828 | 25 | 233 | 0.0 | 3.2 | 0.00 | 0.00 | 0.00 | 53 | 1017.7 |
| 20260902125342 | 24 | 233 | 1.6 | 3.2 | 0.00 | 0.00 | 0.00 | 52 | 1017.6 |
| 20260902124818 | 24 | 233 | 1.6 | 1.6 | 0.00 | 0.00 | 0.00 | 52 | 1017.6 |
| 20260902124331 | 23 | 233 | 0.0 | 1.6 | 0.00 | 0.00 | 0.00 | 52 | 1017.5 |
| 20260902123825 | 23 | 233 | 0.0 | 3.2 | 0.00 | 0.00 | 0.00 | 52 | 1017.5 |
| 20260902123318 | 23 | 233 | 1.6 | 3.2 | 0.00 | 0.00 | 0.00 | 53 | 1017.4 |
| 20260902122832 | 23 | 233 | 0.0 | 1.6 | 0.00 | 0.00 | 0.00 | 53 | 1017.4 |
| 20260902122345 | 23 | 233 | 0.0 | 1.6 | 0.00 | 0.00 | 0.00 | 54 | 1017.3 |
| 20260902121817 | 22 | 233 | 0.0 | 1.6 | 0.00 | 0.00 | 0.00 | 54 | 1017.2 |
| 20260902121349 | 22 | 233 | 0.0 | 1.6 | 0.00 | 0.00 | 0.00 | 55 | 1017.2 |
| 20260902120821 | 22 | 233 | 0.0 | 1.6 | 0.00 | 0.00 | 0.00 | 55 | 1017.2 |
| 20260902120319 | 22 | 233 | 0.0 | 1.6 | 0.00 | 0.00 | 0.00 | 55 | 1017.3 |
| 20260902115850 | 22 | 233 | 0.0 | 1.6 | 0.00 | 0.00 | 0.00 | 55 | 1017.2 |
| 20260902115343 | 21 | 233 | 0.0 | 1.6 | 0.00 | 0.00 | 0.00 | 56 | 1017.2 |
| 20260902114814 | 21 | 233 | 0.0 | 1.6 | 0.00 | 0.00 | 0.00 | 56 | 1017.1 |
| 20260902114328 | 21 | 233 | 0.0 | 1.6 | 0.00 | 0.00 | 0.00 | 56 | 1017.1 |
| 20260902113822 | 21 | 233 | 0.0 | 1.6 | 0.00 | 0.00 | 0.00 | 56 | 1017.0 |
| 20260902113316 | 21 | 233 | 0.0 | 1.6 | 0.00 | 0.00 | 0.00 | 56 | 1017.0 |
| 20260902112829 | 21 | 233 | 0.0 | 1.6 | 0.00 | 0.00 | 0.00 | 56 | 1016.9 |
| 20260902112323 | 21 | 233 | 0.0 | 1.6 | 0.00 | 0.00 | 0.00 | 56 | 1016.8 |
| 20260902111313 | 21 | 233 | 1.6 | 1.6 | 0.00 | 0.00 | 0.00 | 56 | 1016.7 |
| 20260902110826 | 21 | 233 | 0.0 | 1.6 | 0.00 | 0.00 | 0.00 | 56 | 1016.7 |
| 20260902110319 | 21 | 233 | 0.0 | 1.6 | 0.00 | 0.00 | 0.00 | 56 | 1016.7 |
| 20260902105849 | 21 | 233 | 1.6 | 1.6 | 0.00 | 0.00 | 0.00 | 56 | 1016.6 |
| 20260902105341 | 21 | 233 | 0.0 | 1.6 | 0.00 | 0.00 | 0.00 | 55 | 1016.6 |
| 20260902104813 | 21 | 233 | 0.0 | 1.6 | 0.00 | 0.00 | 0.00 | 55 | 1016.6 |
| 20260902104327 | 21 | 233 | 0.0 | 0.0 | 0.00 | 0.00 | 0.00 | 55 | 1016.6 |
| 20260902103820 | 21 | 233 | 0.0 | 1.6 | 0.00 | 0.00 | 0.00 | 55 | 1016.7 |
| 20260902103317 | 21 | 233 | 0.0 | 0.0 | 0.00 | 0.00 | 0.00 | 55 | 1016.6 |
| 20260902102830 | 21 | 233 | 0.0 | 0.0 | 0.00 | 0.00 | 0.00 | 55 | 1016.6 |
| 20260902102323 | 21 | 233 | 0.0 | 0.0 | 0.00 | 0.00 | 0.00 | 56 | 1016.6 |
| 20260902101837 | 21 | 233 | 0.0 | 0.0 | 0.00 | 0.00 | 0.00 | 56 | 1016.5 |
| 20260902101328 | 21 | 233 | 0.0 | 0.0 | 0.00 | 0.00 | 0.00 | 55 | 1016.5 |
| 20260902100821 | 21 | 233 | 0.0 | 0.0 | 0.00 | 0.00 | 0.00 | 55 | 1016.5 |
| 20260902100314 | 21 | 233 | 0.0 | 0.0 | 0.00 | 0.00 | 0.00 | 55 | 1016.5 |
| 20260902095824 | 21 | 233 | 0.0 | 0.0 | 0.00 | 0.00 | 0.00 | 55 | 1016.5 |
| 20260902095321 | 21 | 233 | 0.0 | 0.0 | 0.00 | 0.00 | 0.00 | 55 | 1016.4 |
| 20260902094834 | 21 | 233 | 0.0 | 0.0 | 0.00 | 0.00 | 0.00 | 55 | 1016.4 |
| 20260902094326 | 21 | 233 | 0.0 | 0.0 | 0.00 | 0.00 | 0.00 | 55 | 1016.3 |
| 20260902093839 | 21 | 233 | 0.0 | 0.0 | 0.00 | 0.00 | 0.00 | 55 | 1016.3 |
| 20260902093312 | 21 | 233 | 0.0 | 0.0 | 0.00 | 0.00 | 0.00 | 55 | 1016.2 |
| 20260902092825 | 21 | 233 | 0.0 | 1.6 | 0.00 | 0.00 | 0.00 | 55 | 1016.1 |
| 20260902092320 | 21 | 233 | 0.0 | 1.6 | 0.00 | 0.00 | 0.00 | 55 | 1016.3 |
| 20260902091814 | 21 | 233 | 0.0 | 0.0 | 0.00 | 0.00 | 0.00 | 55 | 1016.3 |
| 20260902091328 | 21 | 233 | 0.0 | 0.0 | 0.00 | 0.00 | 0.00 | 55 | 1016.3 |
| 20260902090841 | 21 | 233 | 0.0 | 0.0 | 0.00 | 0.00 | 0.00 | 55 | 1016.3 |
| 20260902090316 | 21 | 233 | 0.0 | 0.0 | 0.00 | 0.00 | 0.00 | 55 | 1016.2 |
| 20260902085827 | 21 | 233 | 0.0 | 0.0 | 0.00 | 0.00 | 0.00 | 54 | 1016.2 |
| 20260902085320 | 21 | 233 | 0.0 | 0.0 | 0.00 | 0.00 | 0.00 | 54 | 1016.1 |
| 20260902084813 | 21 | 233 | 0.0 | 0.0 | 0.00 | 0.00 | 0.00 | 54 | 1016.0 |
| 20260902084327 | 21 | 233 | 0.0 | 0.0 | 0.00 | 0.00 | 0.00 | 54 | 1016.0 |
| 20260902083841 | 21 | 233 | 0.0 | 0.0 | 0.00 | 0.00 | 0.00 | 54 | 1015.9 |
| 20260902083313 | 21 | 233 | 0.0 | 0.0 | 0.00 | 0.00 | 0.00 | 54 | 1015.8 |
| 20260902082848 | 21 | 233 | 0.0 | 0.0 | 0.00 | 0.00 | 0.00 | 54 | 1015.8 |
| 20260902082320 | 21 | 233 | 0.0 | 0.0 | 0.00 | 0.00 | 0.00 | 54 | 1015.8 |
| 20260902081817 | 22 | 233 | 0.0 | 0.0 | 0.00 | 0.00 | 0.00 | 54 | 1015.8 |
| 20260902081312 | 22 | 233 | 0.0 | 0.0 | 0.00 | 0.00 | 0.00 | 54 | 1015.8 |
| 20260902080825 | 22 | 233 | 0.0 | 0.0 | 0.00 | 0.00 | 0.00 | 54 | 1015.7 |
| 20260902080337 | 22 | 233 | 0.0 | 0.0 | 0.00 | 0.00 | 0.00 | 54 | 1015.7 |
| 20260902075846 | 22 | 233 | 0.0 | 0.0 | 0.00 | 0.00 | 0.00 | 54 | 1015.7 |
| 20260902075320 | 22 | 233 | 0.0 | 0.0 | 0.00 | 0.00 | 0.00 | 54 | 1015.6 |
| 20260902074814 | 22 | 233 | 0.0 | 0.0 | 0.00 | 0.00 | 0.00 | 54 | 1015.6 |
| 20260902074347 | 22 | 233 | 0.0 | 1.6 | 0.00 | 0.00 | 0.00 | 54 | 1015.6 |
| 20260902073818 | 22 | 233 | 0.0 | 1.6 | 0.00 | 0.00 | 0.00 | 54 | 1015.7 |
| 20260902073314 | 22 | 233 | 0.0 | 1.6 | 0.00 | 0.00 | 0.00 | 54 | 1015.7 |
| 20260902072827 | 22 | 233 | 0.0 | 1.6 | 0.00 | 0.00 | 0.00 | 54 | 1015.7 |
| 20260902072342 | 22 | 233 | 0.0 | 0.0 | 0.00 | 0.00 | 0.00 | 54 | 1015.6 |
| 20260902071815 | 22 | 233 | 0.0 | 0.0 | 0.00 | 0.00 | 0.00 | 54 | 1015.7 |
| 20260902071328 | 22 | 233 | 0.0 | 0.0 | 0.00 | 0.00 | 0.00 | 54 | 1015.6 |
| 20260902070822 | 22 | 233 | 0.0 | 0.0 | 0.00 | 0.00 | 0.00 | 54 | 1015.6 |
| 20260902070336 | 22 | 233 | 0.0 | 0.0 | 0.00 | 0.00 | 0.00 | 54 | 1015.6 |
| 20260902065826 | 22 | 233 | 0.0 | 0.0 | 0.00 | 0.00 | 0.00 | 54 | 1015.7 |
| 20260902065338 | 22 | 233 | 0.0 | 0.0 | 0.00 | 0.00 | 0.00 | 54 | 1015.7 |
| 20260902064830 | 22 | 233 | 0.0 | 0.0 | 0.00 | 0.00 | 0.00 | 54 | 1015.7 |
| 20260902064326 | 22 | 233 | 0.0 | 0.0 | 0.00 | 0.00 | 0.00 | 54 | 1015.6 |
| 20260902063819 | 22 | 233 | 0.0 | 0.0 | 0.00 | 0.00 | 0.00 | 54 | 1015.7 |
| 20260902063312 | 22 | 233 | 0.0 | 0.0 | 0.00 | 0.00 | 0.00 | 54 | 1015.7 |
| 20260902062845 | 22 | 233 | 0.0 | 0.0 | 0.00 | 0.00 | 0.00 | 53 | 1015.7 |
| 20260902062317 | 22 | 233 | 0.0 | 0.0 | 0.00 | 0.00 | 0.00 | 54 | 1015.7 |
| 20260902061830 | 22 | 233 | 0.0 | 0.0 | 0.00 | 0.00 | 0.00 | 53 | 1015.8 |
| 20260902061343 | 22 | 233 | 0.0 | 0.0 | 0.00 | 0.00 | 0.00 | 53 | 1015.7 |
| 20260902060816 | 22 | 233 | 0.0 | 0.0 | 0.00 | 0.00 | 0.00 | 53 | 1015.8 |
| 20260902060328 | 22 | 233 | 0.0 | 0.0 | 0.00 | 0.00 | 0.00 | 53 | 1015.8 |
| 20260902055824 | 22 | 233 | 0.0 | 0.0 | 0.00 | 0.00 | 0.00 | 53 | 1015.9 |
| 20260902055317 | 22 | 233 | 0.0 | 0.0 | 0.00 | 0.00 | 0.00 | 53 | 1015.9 |
| 20260902054830 | 22 | 233 | 0.0 | 0.0 | 0.00 | 0.00 | 0.00 | 53 | 1015.9 |
| 20260902054323 | 22 | 233 | 0.0 | 1.6 | 0.00 | 0.00 | 0.00 | 53 | 1015.9 |
| 20260902053816 | 22 | 233 | 0.0 | 1.6 | 0.00 | 0.00 | 0.00 | 53 | 1015.9 |
| 20260902053329 | 22 | 233 | 0.0 | 0.0 | 0.00 | 0.00 | 0.00 | 53 | 1015.9 |
| 20260902052842 | 23 | 233 | 0.0 | 1.6 | 0.00 | 0.00 | 0.00 | 53 | 1015.9 |
| 20260902052315 | 23 | 233 | 0.0 | 1.6 | 0.00 | 0.00 | 0.00 | 53 | 1015.9 |
| 20260902051850 | 23 | 233 | 0.0 | 1.6 | 0.00 | 0.00 | 0.00 | 53 | 1015.9 |
| 20260902051327 | 23 | 233 | 0.0 | 1.6 | 0.00 | 0.00 | 0.00 | 53 | 1015.9 |
| 20260902050822 | 23 | 233 | 0.0 | 1.6 | 0.00 | 0.00 | 0.00 | 53 | 1015.9 |
| 20260902050315 | 23 | 233 | 0.0 | 1.6 | 0.00 | 0.00 | 0.00 | 53 | 1015.9 |
| 20260902045827 | 23 | 233 | 0.0 | 0.0 | 0.00 | 0.00 | 0.00 | 53 | 1015.8 |
| 20260902045320 | 23 | 233 | 0.0 | 0.0 | 0.00 | 0.00 | 0.00 | 53 | 1015.9 |
| 20260902044813 | 23 | 233 | 0.0 | 0.0 | 0.00 | 0.00 | 0.00 | 53 | 1015.9 |
| 20260902044346 | 23 | 233 | 0.0 | 0.0 | 0.00 | 0.00 | 0.00 | 53 | 1015.8 |
| 20260902043820 | 23 | 233 | 0.0 | 1.6 | 0.00 | 0.00 | 0.00 | 53 | 1015.8 |
| 20260902043316 | 23 | 233 | 0.0 | 1.6 | 0.00 | 0.00 | 0.00 | 53 | 1015.8 |
| 20260902042829 | 23 | 233 | 0.0 | 0.0 | 0.00 | 0.00 | 0.00 | 53 | 1015.8 |
| 20260902042341 | 23 | 233 | 0.0 | 0.0 | 0.00 | 0.00 | 0.00 | 53 | 1015.8 |
| 20260902041813 | 23 | 233 | 0.0 | 0.0 | 0.00 | 0.00 | 0.00 | 53 | 1015.8 |
| 20260902041327 | 23 | 233 | 0.0 | 0.0 | 0.00 | 0.00 | 0.00 | 53 | 1015.8 |
| 20260902040821 | 23 | 233 | 0.0 | 0.0 | 0.00 | 0.00 | 0.00 | 53 | 1015.8 |
| 20260902040316 | 23 | 233 | 0.0 | 0.0 | 0.00 | 0.00 | 0.00 | 53 | 1015.8 |
| 20260902035827 | 23 | 233 | 0.0 | 0.0 | 0.00 | 0.00 | 0.00 | 53 | 1015.8 |
| 20260902035319 | 23 | 233 | 0.0 | 0.0 | 0.00 | 0.00 | 0.00 | 53 | 1015.8 |
| 20260902034818 | 23 | 233 | 0.0 | 0.0 | 0.00 | 0.00 | 0.00 | 53 | 1015.8 |
| 20260902034312 | 23 | 233 | 0.0 | 0.0 | 0.00 | 0.00 | 0.00 | 53 | 1015.8 |
| 20260902033825 | 23 | 233 | 0.0 | 0.0 | 0.00 | 0.00 | 0.00 | 53 | 1015.9 |
| 20260902033318 | 23 | 233 | 0.0 | 0.0 | 0.00 | 0.00 | 0.00 | 53 | 1015.8 |
| 20260902032813 | 23 | 233 | 0.0 | 0.0 | 0.00 | 0.00 | 0.00 | 54 | 1015.9 |
| 20260902032327 | 23 | 233 | 0.0 | 0.0 | 0.00 | 0.00 | 0.00 | 54 | 1015.8 |
| 20260902031839 | 24 | 233 | 0.0 | 0.0 | 0.00 | 0.00 | 0.00 | 53 | 1015.8 |
| 20260902031312 | 24 | 233 | 0.0 | 0.0 | 0.00 | 0.00 | 0.00 | 53 | 1015.8 |
| 20260902030829 | 24 | 233 | 0.0 | 0.0 | 0.00 | 0.00 | 0.00 | 54 | 1015.8 |
| 20260902030323 | 24 | 233 | 0.0 | 0.0 | 0.00 | 0.00 | 0.00 | 54 | 1015.8 |
| 20260902025834 | 24 | 233 | 0.0 | 0.0 | 0.00 | 0.00 | 0.00 | 54 | 1015.8 |
| 20260902025345 | 25 | 233 | 0.0 | 0.0 | 0.00 | 0.00 | 0.00 | 54 | 1015.8 |
| 20260902024817 | 25 | 233 | 0.0 | 0.0 | 0.00 | 0.00 | 0.00 | 54 | 1015.8 |
| 20260902024331 | 25 | 233 | 0.0 | 0.0 | 0.00 | 0.00 | 0.00 | 54 | 1015.9 |
| 20260902023824 | 25 | 233 | 0.0 | 0.0 | 0.00 | 0.00 | 0.00 | 54 | 1015.9 |
| 20260902023317 | 25 | 233 | 0.0 | 0.0 | 0.00 | 0.00 | 0.00 | 55 | 1015.9 |
| 20260902022850 | 25 | 233 | 0.0 | 1.6 | 0.00 | 0.00 | 0.00 | 55 | 1015.8 |
| 20260902022322 | 25 | 233 | 0.0 | 1.6 | 0.00 | 0.00 | 0.00 | 55 | 1015.8 |
| 20260902021820 | 25 | 233 | 0.0 | 1.6 | 0.00 | 0.00 | 0.00 | 55 | 1015.8 |
| 20260902021312 | 25 | 233 | 0.0 | 1.6 | 0.00 | 0.00 | 0.00 | 56 | 1015.7 |
| 20260902020824 | 25 | 233 | 0.0 | 1.6 | 0.00 | 0.00 | 0.00 | 56 | 1015.7 |
| 20260902020316 | 25 | 233 | 0.0 | 1.6 | 0.00 | 0.00 | 0.00 | 57 | 1015.6 |
| 20260902015847 | 26 | 233 | 0.0 | 0.0 | 0.00 | 0.00 | 0.00 | 57 | 1015.7 |
| 20260902015318 | 26 | 233 | 0.0 | 0.0 | 0.00 | 0.00 | 0.00 | 60 | 1015.7 |
| 20260902014833 | 26 | 233 | 0.0 | 1.6 | 0.00 | 0.00 | 0.00 | 61 | 1015.7 |
| 20260902014326 | 26 | 233 | 0.0 | 1.6 | 0.00 | 0.00 | 0.00 | 63 | 1015.6 |
| 20260902013820 | 26 | 233 | 0.0 | 1.6 | 0.00 | 0.00 | 0.00 | 64 | 1015.7 |
| 20260902013337 | 26 | 233 | 0.0 | 0.0 | 0.00 | 0.00 | 0.00 | 65 | 1015.7 |
| 20260902012830 | 26 | 233 | 0.0 | 0.0 | 0.00 | 0.00 | 0.00 | 67 | 1015.5 |
| 20260902012322 | 26 | 233 | 0.0 | 0.0 | 0.00 | 0.00 | 0.00 | 68 | 1015.5 |
| 20260902011814 | 27 | 233 | 0.0 | 0.0 | 0.00 | 0.00 | 0.00 | 68 | 1015.4 |
| 20260902011327 | 27 | 233 | 0.0 | 0.0 | 0.00 | 0.00 | 0.00 | 68 | 1015.4 |
| 20260902010820 | 27 | 233 | 0.0 | 0.0 | 0.00 | 0.00 | 0.00 | 68 | 1015.4 |
| 20260902010314 | 27 | 233 | 0.0 | 1.6 | 0.00 | 0.00 | 0.00 | 68 | 1015.3 |
| 20260902005825 | 27 | 233 | 0.0 | 1.6 | 0.00 | 0.00 | 0.00 | 68 | 1015.3 |
| 20260902005324 | 27 | 233 | 0.0 | 0.0 | 0.00 | 0.00 | 0.00 | 67 | 1015.2 |
| 20260902004816 | 28 | 233 | 0.0 | 0.0 | 0.00 | 0.00 | 0.00 | 67 | 1015.1 |
| 20260902004328 | 28 | 233 | 0.0 | 0.0 | 0.00 | 0.00 | 0.00 | 67 | 1015.1 |
| 20260902003822 | 28 | 233 | 0.0 | 1.6 | 0.00 | 0.00 | 0.00 | 68 | 1015.1 |
| 20260902003315 | 29 | 233 | 0.0 | 1.6 | 0.00 | 0.00 | 0.00 | 68 | 1015.1 |
| 20260902002828 | 29 | 233 | 0.0 | 0.0 | 0.00 | 0.00 | 0.00 | 68 | 1015.1 |
| 20260902002320 | 30 | 233 | 0.0 | 0.0 | 0.00 | 0.00 | 0.00 | 67 | 1015.0 |
| 20260902001834 | 30 | 233 | 0.0 | 0.0 | 0.00 | 0.00 | 0.00 | 66 | 1015.1 |
| 20260902001326 | 31 | 233 | 0.0 | 0.0 | 0.00 | 0.00 | 0.00 | 63 | 1015.1 |
| 20260902000845 | 32 | 233 | 0.0 | 0.0 | 0.00 | 0.00 | 0.00 | 61 | 1015.1 |
| 20260902000322 | 32 | 233 | 0.0 | 0.0 | 0.00 | 0.00 | 0.00 | 61 | 1015.1 |
| 20260901235827 | 33 | 233 | 0.0 | 0.0 | 0.00 | 0.00 | 0.00 | 60 | 1015.1 |
| 20260901235319 | 33 | 233 | 0.0 | 0.0 | 0.00 | 0.00 | 0.00 | 59 | 1015.0 |
| 20260901234814 | 33 | 233 | 0.0 | 1.6 | 0.00 | 0.00 | 0.00 | 59 | 1015.1 |
| 20260901234327 | 34 | 233 | 0.0 | 1.6 | 0.00 | 0.00 | 0.00 | 58 | 1015.1 |
| 20260901233839 | 35 | 233 | 0.0 | 0.0 | 0.00 | 0.00 | 0.00 | 57 | 1015.2 |
| 20260901233315 | 35 | 233 | 0.0 | 1.6 | 0.00 | 0.00 | 0.00 | 55 | 1015.3 |
| 20260901232823 | 35 | 233 | 0.0 | 1.6 | 0.00 | 0.00 | 0.00 | 55 | 1015.4 |
| 20260901232315 | 36 | 233 | 0.0 | 0.0 | 0.00 | 0.00 | 0.00 | 55 | 1015.3 |